Regional Weather Roundup
Issued by NWS

Home | Current Version | Previous Version | Graphics & Text | Print | Product List | Glossary On
Versions: 1 2 3 4 5 6 7 8 9 10 11 12 13 14 15 16 17 18 19 20 21 22 23 24 25 26 27 28 29 30 31 32 33 34 35 36 37 38 39 40 41 42 43 44 45 46 47 48 49 50
000
ASUS43 KOAX 301902
RWRNE

WEATHER ROUNDUP FOR NEBRASKA
NATIONAL WEATHER SERVICE OMAHA NE
200 PM CDT THU JUL 30 2015

NOTES: SATELLITE DATA IS BEING USED TO AUGMENT CLOUD COVER ABOVE
       12000 FEET.
       "FAIR" INDICATES FEW OR NO CLOUDS BELOW 12,000 FEET WITH NO
       SIGNIFICANT WEATHER AND/OR OBSTRUCTIONS TO VISIBILITY.

  * THESE STATIONS DO NOT REPORT WEATHER SUCH AS RAIN...SNOW OR FOG.

NEZ001>004-019>022-054>056-302000-
NEBRASKA PANHANDLE

CITY           SKY/WX    TMP DP  RH WIND       PRES   REMARKS
SCOTTSBLUFF    SUNNY     84  57  39 VRB6      30.28F
ALLIANCE       SUNNY     88  51  28 NE12      30.27F
CHADRON        SUNNY     87  44  22 VRB6      30.26F
KIMBALL        SUNNY     81  54  38 N6        30.32F
SIDNEY         SUNNY     86  55  34 S8        30.30F
$$

NEZ057>060-069>072-079>082-302000-
SOUTHWEST NEBRASKA

CITY           SKY/WX    TMP DP  RH WIND       PRES   REMARKS
NORTH PLATTE   SUNNY     87  57  35 SW8       30.23F
IMPERIAL       MOSUNNY   88  59  37 S10       30.25F
LEXINGTON      SUNNY     85  64  48 SW6       30.24S
MCCOOK         SUNNY     88  61  40 SE10      30.23F
$$

NEZ005>010-023>029-035>040-094-302000-
NORTH CENTRAL NEBRASKA

CITY           SKY/WX    TMP DP  RH WIND       PRES   REMARKS
VALENTINE      SUNNY     90  40  17 VRB5      30.21S
AINSWORTH      SUNNY     87  54  31 W5        30.22S
BROKEN BOW     MOSUNNY   87  63  44 SW10      30.23F
ORD            SUNNY     87  61  41 S8        30.20F
$$

NEZ041-046>049-061>064-073>077-083>087-302000-
SOUTH CENTRAL NEBRASKA

CITY           SKY/WX    TMP DP  RH WIND       PRES   REMARKS
GRAND ISLAND   SUNNY     86  57  37 SW12      30.23F
AURORA         SUNNY     84  64  50 SW7       30.21F
HASTINGS       SUNNY     85  65  51 SW9       30.22F
KEARNEY *      SUNNY     84  64  51 S10       30.22F
$$

NEZ011>018-030>034-042>045-302000-
NORTHEAST NEBRASKA

CITY           SKY/WX    TMP DP  RH WIND       PRES   REMARKS
NORFOLK        SUNNY     86  58  38 SW12      30.18F
BLAIR          SUNNY     82  61  48 SW7       30.20F
COLUMBUS *     SUNNY     86  55  35 SW12      30.20F
FREMONT        SUNNY     85  61  45 W6        30.20F
TEKAMAH        MOSUNNY   86  65  49 SW10      30.18F
$$

NEZ050>053-065>068-078-088>093-302000-
SOUTHEAST NEBRASKA

CITY           SKY/WX    TMP DP  RH WIND       PRES   REMARKS
LINCOLN        SUNNY     90  55  30 SW10      30.20F
OMAHA EPPLEY   MOSUNNY   88  57  34 SW9       30.18F
FALLS CITY     MOSUNNY   86  62  44 SW9       30.19F
$$

NEZ044-045-051>053-067-302000-
OMAHA AREA

CITY           SKY/WX    TMP DP  RH WIND       PRES   REMARKS
OMAHA EPPLEY   MOSUNNY   88  57  34 SW9       30.18F
BLAIR          SUNNY     82  61  48 SW7       30.20F
FREMONT        SUNNY     85  61  45 W6        30.20F
OFFUTT AFB     SUNNY     87  60  40 W8        30.18F
$$


USA.gov is the U.S. government's official web portal to all federal, state and local government web resources and services.